Location: Newark
(54.6833°N, 25.2833°E)
Time: 11:31:37
(UTC+00:00)

Vanguard 3 - All Passes

Search period start: 21 January 2021 00:00
Search period end: 31 January 2021 00:00
Orbit: 508 x 3262 km, 33.3° (Epoch: 20 January)

Date Brightness Start Highest point End Pass type
(mag) Time Alt. Az. Time Alt. Az. Time Alt. Az.
21 Jan - 03:36:11 10° SSW 03:43:22 23° SSE 03:53:39 10° ESE visible
21 Jan - 05:45:40 10° SW 05:55:07 28° S 06:08:24 10° SE visible
21 Jan - 07:58:01 10° WSW 08:07:40 21° SSW 08:19:27 10° SSE daylight
22 Jan - 02:24:34 10° S 02:29:36 16° SSE 02:36:10 10° ESE visible
22 Jan - 04:32:27 10° SW 04:40:29 26° S 04:52:07 10° SE visible
22 Jan - 06:43:17 10° WSW 06:52:40 24° SSW 07:05:07 10° SSE daylight
22 Jan - 08:59:07 10° WSW 09:05:00 13° SW 09:11:30 10° SSW daylight
23 Jan - 03:19:55 10° SSW 03:26:19 22° SSE 03:35:23 10° ESE visible
23 Jan - 05:29:27 10° SW 05:37:52 25° S 05:49:42 10° SE visible
23 Jan - 07:42:09 10° WSW 07:50:11 17° SSW 07:59:56 10° S daylight
24 Jan - 02:08:22 10° S 02:12:39 15° SSE 02:18:08 10° ESE visible
24 Jan - 04:16:19 10° SW 04:23:25 24° S 04:33:37 10° SE visible
24 Jan - 06:27:17 10° WSW 06:35:22 21° SSW 06:46:00 10° SSE daylight
25 Jan - 03:03:49 10° SSW 03:09:23 20° SSE 03:17:08 10° SE visible
25 Jan - 05:13:26 10° SW 05:20:45 22° S 05:30:53 10° SE visible
25 Jan - 07:26:51 10° SW 07:32:49 14° SSW 07:39:50 10° S daylight
26 Jan - 01:52:20 10° S 01:55:48 14° SSE 02:00:06 10° SE visible
26 Jan - 04:00:19 10° SW 04:06:28 21° S 04:15:06 10° SE visible
26 Jan - 06:11:36 10° SW 06:18:11 17° SSW 06:26:37 10° SSE daylight
27 Jan - 02:47:52 10° SSW 02:52:34 17° SSE 02:58:53 10° SE visible
27 Jan - 04:57:39 10° SW 05:03:45 18° S 05:11:56 10° SSE visible
27 Jan - 07:13:28 10° SW 07:15:36 10° SSW 07:17:51 10° SSW daylight
28 Jan - 01:36:33 10° S 01:39:04 12° SSE 01:42:00 10° SE visible
28 Jan - 03:44:31 10° SW 03:49:38 18° S 03:56:30 10° SE visible
28 Jan - 05:56:29 10° SW 06:01:08 13° SSW 06:06:43 10° S daylight
29 Jan - 02:32:06 10° SSW 02:35:50 15° S 02:40:36 10° SE visible
29 Jan - 04:42:14 10° SW 04:46:52 15° S 04:52:44 10° SSE visible
30 Jan - 01:21:28 10° SSE 01:22:24 10° SSE 01:23:23 10° SSE visible
30 Jan - 03:29:00 10° SSW 03:32:53 14° S 03:37:46 10° SSE visible
